owner,sensor,date,latitude,longitude,vertical_datum,sea_water_temperature,qcFlag 
TABS,ioos:station:wmo:42050:1,2007-03-10T01:30:00Z,28.8425,-94.2433,-2.0,18.39,11111222 
TABS,ioos:station:wmo:42050:1,2007-03-10T02:00:00Z,28.8425,-94.2433,-2.0,18.02,11111222 
TABS,ioos:station:wmo:42050:1,2007-03-10T02:30:00Z,28.8425,-94.2433,-2.0,17.81,11111222 
TABS,ioos:station:wmo:42050:1,2007-03-10T03:00:00Z,28.8425,-94.2433,-2.0,17.63,11111222 
TABS,ioos:station:wmo:42050:1,2007-03-10T03:30:00Z,28.8425,-94.2433,-2.0,17.5,11111222 
TABS,ioos:station:wmo:42050:1,2007-03-10T04:00:00Z,28.8425,-94.2433,-2.0,17.44,11111222 
TABS,ioos:station:wmo:42050:1,2007-03-10T04:30:00Z,28.8425,-94.2433,-2.0,17.37,11111222 
TABS,ioos:station:wmo:42050:1,2007-03-10T05:00:00Z,28.8425,-94.2433,-2.0,17.26,11111222 
TABS,ioos:station:wmo:42050:1,2007-03-10T05:30:00Z,28.8425,-94.2433,-2.0,17.22,11111222 
TABS,ioos:station:wmo:42050:1,2007-03-10T06:00:00Z,28.8425,-94.2433,-2.0,17.04,11111222 
TABS,ioos:station:wmo:42050:1,2007-03-10T06:30:00Z,28.8425,-94.2433,-2.0,16.94,11111222 
TABS,ioos:station:wmo:42050:1,2007-03-10T07:00:00Z,28.8425,-94.2433,-2.0,16.7,11111222 
TABS,ioos:station:wmo:42050:1,2007-03-10T07:30:00Z,28.8425,-94.2433,-2.0,16.6,11111222 
TABS,ioos:station:wmo:42050:1,2007-03-10T08:00:00Z,28.8425,-94.2433,-2.0,16.83,11111222 
TABS,ioos:station:wmo:42050:1,2007-03-10T08:30:00Z,28.8425,-94.2433,-2.0,16.84,11111222 
TABS,ioos:station:wmo:42050:1,2007-03-10T09:00:00Z,28.8425,-94.2433,-2.0,16.82,11111222 
TABS,ioos:station:wmo:42050:1,2007-03-10T09:30:00Z,28.8425,-94.2433,-2.0,17.1,11111222 
TABS,ioos:station:wmo:42050:1,2007-03-10T10:00:00Z,28.8425,-94.2433,-2.0,17.21,11111222 
TABS,ioos:station:wmo:42050:1,2007-03-10T10:30:00Z,28.8425,-94.2433,-2.0,16.98,11111222 
TABS,ioos:station:wmo:42050:1,2007-03-10T11:00:00Z,28.8425,-94.2433,-2.0,16.81,11111222 
TABS,ioos:station:wmo:42050:1,2007-03-10T11:30:00Z,28.8425,-94.2433,-2.0,16.7,11111222 
TABS,ioos:station:wmo:42050:1,2007-03-10T12:00:00Z,28.8425,-94.2433,-2.0,16.59,11111222 
TABS,ioos:station:wmo:42050:1,2007-03-10T12:30:00Z,28.8425,-94.2433,-2.0,16.52,11111222 
TABS,ioos:station:wmo:42050:1,2007-03-10T13:00:00Z,28.8425,-94.2433,-2.0,16.55,11111222 
TABS,ioos:station:wmo:42050:1,2007-03-10T13:30:00Z,28.8425,-94.2433,-2.0,16.73,11111222 
TABS,ioos:station:wmo:42050:1,2007-03-10T14:00:00Z,28.8425,-94.2433,-2.0,16.85,11111222 
TABS,ioos:station:wmo:42050:1,2007-03-10T14:30:00Z,28.8425,-94.2433,-2.0,17.04,11111222 
TABS,ioos:station:wmo:42050:1,2007-03-10T15:00:00Z,28.8425,-94.2433,-2.0,17.23,11111222 
TABS,ioos:station:wmo:42050:1,2007-03-10T15:30:00Z,28.8425,-94.2433,-2.0,18.08,11111222 
TABS,ioos:station:wmo:42050:1,2007-03-10T16:00:00Z,28.8425,-94.2433,-2.0,20.04,11111222 
TABS,ioos:station:wmo:42050:1,2007-03-10T16:30:00Z,28.8425,-94.2433,-2.0,21.95,11111222 
TABS,ioos:station:wmo:42050:1,2007-03-10T17:00:00Z,28.8425,-94.2433,-2.0,23.04,11111222 
TABS,ioos:station:wmo:42050:1,2007-03-10T17:30:00Z,28.8425,-94.2433,-2.0,23.62,11111222 
TABS,ioos:station:wmo:42050:1,2007-03-10T18:00:00Z,28.8425,-94.2433,-2.0,24.26,11111222 
TABS,ioos:station:wmo:42050:1,2007-03-10T18:30:00Z,28.8425,-94.2433,-2.0,24.79,11111222 
TABS,ioos:station:wmo:42050:1,2007-03-10T19:00:00Z,28.8425,-94.2433,-2.0,25.43,11111222 
TABS,ioos:station:wmo:42050:1,2007-03-10T19:30:00Z,28.8425,-94.2433,-2.0,25.69,11111222 
TABS,ioos:station:wmo:42050:1,2007-03-10T20:00:00Z,28.8425,-94.2433,-2.0,25.08,11111222 
TABS,ioos:station:wmo:42050:1,2007-03-10T20:30:00Z,28.8425,-94.2433,-2.0,25.22,11111222 
TABS,ioos:station:wmo:42050:1,2007-03-10T21:00:00Z,28.8425,-94.2433,-2.0,25.19,11111222 
TABS,ioos:station:wmo:42050:1,2007-03-10T21:30:00Z,28.8425,-94.2433,-2.0,24.48,11111222 
TABS,ioos:station:wmo:42050:1,2007-03-10T22:00:00Z,28.8425,-94.2433,-2.0,24.05,11111222 
TABS,ioos:station:wmo:42050:1,2007-03-10T22:30:00Z,28.8425,-94.2433,-2.0,24.41,11111222 
TABS,ioos:station:wmo:42050:1,2007-03-10T23:00:00Z,28.8425,-94.2433,-2.0,24.41,11111222 
TABS,ioos:station:wmo:42050:1,2007-03-10T23:30:00Z,28.8425,-94.2433,-2.0,24.41,11111222 
TABS,ioos:station:wmo:42050:1,2007-03-11T00:00:00Z,28.8425,-94.2433,-2.0,24.41,11111222 
TABS,ioos:station:wmo:42050:1,2007-03-11T00:30:00Z,28.8425,-94.2433,-2.0,24.41,11111222 
TABS,ioos:station:wmo:42050:1,2007-03-11T01:00:00Z,28.8425,-94.2433,-2.0,24.41,11111222 
TABS,ioos:station:wmo:42050:1,2007-03-11T01:30:00Z,28.8425,-94.2433,-2.0,24.41,11111222 
TABS,ioos:station:wmo:42050:1,2007-03-11T02:00:00Z,28.8425,-94.2433,-2.0,24.41,11111222 
TABS,ioos:station:wmo:42050:1,2007-03-11T02:30:00Z,28.8425,-94.2433,-2.0,24.41,11111222 
TABS,ioos:station:wmo:42050:1,2007-03-11T03:00:00Z,28.8425,-94.2433,-2.0,24.41,11111222 
TABS,ioos:station:wmo:42050:1,2007-03-11T03:30:00Z,28.8425,-94.2433,-2.0,24.41,11111222 
TABS,ioos:station:wmo:42050:1,2007-03-11T04:00:00Z,28.8425,-94.2433,-2.0,24.41,11111222 
TABS,ioos:station:wmo:42050:1,2007-03-11T04:30:00Z,28.8425,-94.2433,-2.0,24.41,11111222 
TABS,ioos:station:wmo:42050:1,2007-03-11T05:00:00Z,28.8425,-94.2433,-2.0,24.41,11111222 
TABS,ioos:station:wmo:42050:1,2007-03-11T05:30:00Z,28.8425,-94.2433,-2.0,24.41,11111222 
TABS,ioos:station:wmo:42050:1,2007-03-11T06:00:00Z,28.8425,-94.2433,-2.0,24.41,11111222 
TABS,ioos:station:wmo:42050:1,2007-03-11T06:30:00Z,28.8425,-94.2433,-2.0,24.41,11111222 
TABS,ioos:station:wmo:42050:1,2007-03-11T07:00:00Z,28.8425,-94.2433,-2.0,24.41,11111222 
TABS,ioos:station:wmo:42050:1,2007-03-11T07:30:00Z,28.8425,-94.2433,-2.0,24.41,11111222 
TABS,ioos:station:wmo:42050:1,2007-03-11T08:00:00Z,28.8425,-94.2433,-2.0,24.41,11111222 
TABS,ioos:station:wmo:42050:1,2007-03-11T08:30:00Z,28.8425,-94.2433,-2.0,24.41,11111222 
TABS,ioos:station:wmo:42050:1,2007-03-11T09:00:00Z,28.8425,-94.2433,-2.0,24.41,11111222 
TABS,ioos:station:wmo:42050:1,2007-03-11T09:30:00Z,28.8425,-94.2433,-2.0,24.41,11111222 
TABS,ioos:station:wmo:42050:1,2007-03-11T10:00:00Z,28.8425,-94.2433,-2.0,24.41,11111222 
TABS,ioos:station:wmo:42050:1,2007-03-11T10:30:00Z,28.8425,-94.2433,-2.0,24.41,11111222 
TABS,ioos:station:wmo:42050:1,2007-03-11T11:00:00Z,28.8425,-94.2433,-2.0,24.41,11111222 
TABS,ioos:station:wmo:42050:1,2007-03-11T11:30:00Z,28.8425,-94.2433,-2.0,24.41,11111222 
TABS,ioos:station:wmo:42050:1,2007-03-11T12:00:00Z,28.8425,-94.2433,-2.0,24.41,11111222 
TABS,ioos:station:wmo:42050:1,2007-03-11T12:30:00Z,28.8425,-94.2433,-2.0,24.41,11111222 
TABS,ioos:station:wmo:42050:1,2007-03-11T13:00:00Z,28.8425,-94.2433,-2.0,24.41,11111222 
TABS,ioos:station:wmo:42050:1,2007-03-11T13:30:00Z,28.8425,-94.2433,-2.0,24.41,11111222 
TABS,ioos:station:wmo:42050:1,2007-03-11T14:00:00Z,28.8425,-94.2433,-2.0,24.41,11111222 
TABS,ioos:station:wmo:42050:1,2007-03-11T15:30:00Z,28.8425,-94.2433,-2.0,16.81,11111222 
TABS,ioos:station:wmo:42050:1,2007-03-11T16:00:00Z,28.8425,-94.2433,-2.0,16.83,11111222 
TABS,ioos:station:wmo:42050:1,2007-03-11T16:30:00Z,28.8425,-94.2433,-2.0,16.82,11111222 
TABS,ioos:station:wmo:42050:1,2007-03-11T17:00:00Z,28.8425,-94.2433,-2.0,16.88,11111222 
TABS,ioos:station:wmo:42050:1,2007-03-11T17:30:00Z,28.8425,-94.2433,-2.0,16.9,11111222 
TABS,ioos:station:wmo:42050:1,2007-03-11T18:00:00Z,28.8425,-94.2433,-2.0,16.93,11111222 
TABS,ioos:station:wmo:42050:1,2007-03-11T18:30:00Z,28.8425,-94.2433,-2.0,16.98,11111222 
TABS,ioos:station:wmo:42050:1,2007-03-11T19:00:00Z,28.8425,-94.2433,-2.0,17.02,11111222 
TABS,ioos:station:wmo:42050:1,2007-03-11T19:30:00Z,28.8425,-94.2433,-2.0,17.05,11111222 
TABS,ioos:station:wmo:42050:1,2007-03-11T20:00:00Z,28.8425,-94.2433,-2.0,17.0,11111222 
TABS,ioos:station:wmo:42050:1,2007-03-11T20:30:00Z,28.8425,-94.2433,-2.0,16.99,11111222 
TABS,ioos:station:wmo:42050:1,2007-03-11T21:00:00Z,28.8425,-94.2433,-2.0,17.0,11111222 
TABS,ioos:station:wmo:42050:1,2007-03-11T21:30:00Z,28.8425,-94.2433,-2.0,17.02,11111222 
TABS,ioos:station:wmo:42050:1,2007-03-11T22:00:00Z,28.8425,-94.2433,-2.0,17.03,11111222 
TABS,ioos:station:wmo:42050:1,2007-03-11T22:30:00Z,28.8425,-94.2433,-2.0,17.0,11111222 
TABS,ioos:station:wmo:42050:1,2007-03-11T23:00:00Z,28.8425,-94.2433,-2.0,16.97,11111222 
TABS,ioos:station:wmo:42050:1,2007-03-11T23:30:00Z,28.8425,-94.2433,-2.0,16.91,11111222 
TABS,ioos:station:wmo:42050:1,2007-03-12T00:00:00Z,28.8425,-94.2433,-2.0,16.8,11111222 
TABS,ioos:station:wmo:42050:1,2007-03-12T00:30:00Z,28.8425,-94.2433,-2.0,16.73,11111222 
TABS,ioos:station:wmo:42050:1,2007-03-12T01:00:00Z,28.8425,-94.2433,-2.0,16.72,11111222 
TABS,ioos:station:wmo:42050:1,2007-03-12T01:30:00Z,28.8425,-94.2433,-2.0,16.78,11111222 
TABS,ioos:station:wmo:42050:1,2007-03-12T02:00:00Z,28.8425,-94.2433,-2.0,16.91,11111222 
TABS,ioos:station:wmo:42050:1,2007-03-12T02:30:00Z,28.8425,-94.2433,-2.0,16.93,11111222 
TABS,ioos:station:wmo:42050:1,2007-03-12T03:00:00Z,28.8425,-94.2433,-2.0,16.9,11111222 
TABS,ioos:station:wmo:42050:1,2007-03-12T03:30:00Z,28.8425,-94.2433,-2.0,16.85,11111222 
TABS,ioos:station:wmo:42050:1,2007-03-12T04:00:00Z,28.8425,-94.2433,-2.0,16.81,11111222 
TABS,ioos:station:wmo:42050:1,2007-03-12T04:30:00Z,28.8425,-94.2433,-2.0,16.82,11111222 
TABS,ioos:station:wmo:42050:1,2007-03-12T05:00:00Z,28.8425,-94.2433,-2.0,16.91,11111222 
TABS,ioos:station:wmo:42050:1,2007-03-12T05:30:00Z,28.8425,-94.2433,-2.0,16.97,11111222 
TABS,ioos:station:wmo:42050:1,2007-03-12T06:00:00Z,28.8425,-94.2433,-2.0,17.0,11111222 
TABS,ioos:station:wmo:42050:1,2007-03-12T06:30:00Z,28.8425,-94.2433,-2.0,17.01,11111222 
TABS,ioos:station:wmo:42050:1,2007-03-12T07:00:00Z,28.8425,-94.2433,-2.0,17.0,11111222 
TABS,ioos:station:wmo:42050:1,2007-03-12T07:30:00Z,28.8425,-94.2433,-2.0,17.05,11111222 
TABS,ioos:station:wmo:42050:1,2007-03-12T08:00:00Z,28.8425,-94.2433,-2.0,17.21,11111222 
TABS,ioos:station:wmo:42050:1,2007-03-12T08:30:00Z,28.8425,-94.2433,-2.0,17.36,11111222 
TABS,ioos:station:wmo:42050:1,2007-03-12T09:00:00Z,28.8425,-94.2433,-2.0,17.48,11111222 
TABS,ioos:station:wmo:42050:1,2007-03-12T09:30:00Z,28.8425,-94.2433,-2.0,17.5,11111222 
TABS,ioos:station:wmo:42050:1,2007-03-12T10:00:00Z,28.8425,-94.2433,-2.0,17.52,11111222 
TABS,ioos:station:wmo:42050:1,2007-03-12T10:30:00Z,28.8425,-94.2433,-2.0,17.55,11111222 
TABS,ioos:station:wmo:42050:1,2007-03-12T11:00:00Z,28.8425,-94.2433,-2.0,17.55,11111222 
TABS,ioos:station:wmo:42050:1,2007-03-12T11:30:00Z,28.8425,-94.2433,-2.0,17.53,11111222 
TABS,ioos:station:wmo:42050:1,2007-03-12T12:00:00Z,28.8425,-94.2433,-2.0,17.57,11111222 
TABS,ioos:station:wmo:42050:1,2007-03-12T12:30:00Z,28.8425,-94.2433,-2.0,17.58,11111222 
TABS,ioos:station:wmo:42050:1,2007-03-12T13:00:00Z,28.8425,-94.2433,-2.0,17.59,11111222 
TABS,ioos:station:wmo:42050:1,2007-03-12T13:30:00Z,28.8425,-94.2433,-2.0,17.59,11111222 
TABS,ioos:station:wmo:42050:1,2007-03-12T14:00:00Z,28.8425,-94.2433,-2.0,17.58,11111222 
TABS,ioos:station:wmo:42050:1,2007-03-12T14:30:00Z,28.8425,-94.2433,-2.0,17.57,11111222 
TABS,ioos:station:wmo:42050:1,2007-03-12T15:00:00Z,28.8425,-94.2433,-2.0,17.57,11111222 
TABS,ioos:station:wmo:42050:1,2007-03-12T15:30:00Z,28.8425,-94.2433,-2.0,17.58,11111222 
TABS,ioos:station:wmo:42050:1,2007-03-12T16:00:00Z,28.8425,-94.2433,-2.0,17.58,11111222 
TABS,ioos:station:wmo:42050:1,2007-03-12T16:30:00Z,28.8425,-94.2433,-2.0,17.59,11111222 
TABS,ioos:station:wmo:42050:1,2007-03-12T17:00:00Z,28.8425,-94.2433,-2.0,17.6,11111222 
TABS,ioos:station:wmo:42050:1,2007-03-12T17:30:00Z,28.8425,-94.2433,-2.0,17.59,11111222 
TABS,ioos:station:wmo:42050:1,2007-03-12T18:00:00Z,28.8425,-94.2433,-2.0,17.59,11111222 
TABS,ioos:station:wmo:42050:1,2007-03-12T18:30:00Z,28.8425,-94.2433,-2.0,17.55,11111222 
TABS,ioos:station:wmo:42050:1,2007-03-12T19:00:00Z,28.8425,-94.2433,-2.0,17.49,11111222 
TABS,ioos:station:wmo:42050:1,2007-03-12T19:30:00Z,28.8425,-94.2433,-2.0,17.45,11111222 
TABS,ioos:station:wmo:42050:1,2007-03-12T20:00:00Z,28.8425,-94.2433,-2.0,17.43,11111222 
TABS,ioos:station:wmo:42050:1,2007-03-12T20:30:00Z,28.8425,-94.2433,-2.0,17.42,11111222 
TABS,ioos:station:wmo:42050:1,2007-03-12T21:00:00Z,28.8425,-94.2433,-2.0,17.43,11111222 
TABS,ioos:station:wmo:42050:1,2007-03-12T21:30:00Z,28.8425,-94.2433,-2.0,17.45,11111222 
TABS,ioos:station:wmo:42050:1,2007-03-12T22:00:00Z,28.8425,-94.2433,-2.0,17.45,11111222 
TABS,ioos:station:wmo:42050:1,2007-03-12T22:30:00Z,28.8425,-94.2433,-2.0,17.44,11111222 
TABS,ioos:station:wmo:42050:1,2007-03-12T23:00:00Z,28.8425,-94.2433,-2.0,17.33,11111222 
TABS,ioos:station:wmo:42050:1,2007-03-12T23:30:00Z,28.8425,-94.2433,-2.0,17.26,11111222 
TABS,ioos:station:wmo:42050:1,2007-03-13T00:00:00Z,28.8425,-94.2433,-2.0,17.22,11111222 
TABS,ioos:station:wmo:42050:1,2007-03-13T00:30:00Z,28.8425,-94.2433,-2.0,17.21,11111222 
TABS,ioos:station:wmo:42050:1,2007-03-13T01:00:00Z,28.8425,-94.2433,-2.0,17.22,11111222 
TABS,ioos:station:wmo:42050:1,2007-03-13T01:30:00Z,28.8425,-94.2433,-2.0,17.26,11111222 
TABS,ioos:station:wmo:42050:1,2007-03-13T02:00:00Z,28.8425,-94.2433,-2.0,17.31,11111222 
TABS,ioos:station:wmo:42050:1,2007-03-13T02:30:00Z,28.8425,-94.2433,-2.0,17.34,11111222 
TABS,ioos:station:wmo:42050:1,2007-03-13T03:00:00Z,28.8425,-94.2433,-2.0,17.34,11111222 
TABS,ioos:station:wmo:42050:1,2007-03-13T03:30:00Z,28.8425,-94.2433,-2.0,17.35,11111222 
TABS,ioos:station:wmo:42050:1,2007-03-13T04:00:00Z,28.8425,-94.2433,-2.0,17.35,11111222 
TABS,ioos:station:wmo:42050:1,2007-03-13T04:30:00Z,28.8425,-94.2433,-2.0,17.36,11111222 
TABS,ioos:station:wmo:42050:1,2007-03-13T05:00:00Z,28.8425,-94.2433,-2.0,17.35,11111222 
TABS,ioos:station:wmo:42050:1,2007-03-13T05:30:00Z,28.8425,-94.2433,-2.0,17.34,11111222 
TABS,ioos:station:wmo:42050:1,2007-03-13T06:00:00Z,28.8425,-94.2433,-2.0,17.35,11111222 
TABS,ioos:station:wmo:42050:1,2007-03-13T06:30:00Z,28.8425,-94.2433,-2.0,17.36,11111222 
TABS,ioos:station:wmo:42050:1,2007-03-13T07:00:00Z,28.8425,-94.2433,-2.0,17.4,11111222 
TABS,ioos:station:wmo:42050:1,2007-03-13T07:30:00Z,28.8425,-94.2433,-2.0,17.48,11111222 
TABS,ioos:station:wmo:42050:1,2007-03-13T08:00:00Z,28.8425,-94.2433,-2.0,17.59,11111222 
TABS,ioos:station:wmo:42050:1,2007-03-13T08:30:00Z,28.8425,-94.2433,-2.0,17.68,11111222 
TABS,ioos:station:wmo:42050:1,2007-03-13T09:00:00Z,28.8425,-94.2433,-2.0,17.69,11111222 
TABS,ioos:station:wmo:42050:1,2007-03-13T09:30:00Z,28.8425,-94.2433,-2.0,17.66,11111222 
TABS,ioos:station:wmo:42050:1,2007-03-13T10:00:00Z,28.8425,-94.2433,-2.0,17.44,11111222 
TABS,ioos:station:wmo:42050:1,2007-03-13T10:30:00Z,28.8425,-94.2433,-2.0,17.25,11111222 
TABS,ioos:station:wmo:42050:1,2007-03-13T11:00:00Z,28.8425,-94.2433,-2.0,17.15,11111222 
TABS,ioos:station:wmo:42050:1,2007-03-13T11:30:00Z,28.8425,-94.2433,-2.0,17.13,11111222 
TABS,ioos:station:wmo:42050:1,2007-03-13T12:00:00Z,28.8425,-94.2433,-2.0,17.35,11111222 
TABS,ioos:station:wmo:42050:1,2007-03-13T12:30:00Z,28.8425,-94.2433,-2.0,17.5,11111222 
TABS,ioos:station:wmo:42050:1,2007-03-13T13:00:00Z,28.8425,-94.2433,-2.0,17.5,11111222 
TABS,ioos:station:wmo:42050:1,2007-03-13T13:30:00Z,28.8425,-94.2433,-2.0,17.53,11111222 
TABS,ioos:station:wmo:42050:1,2007-03-13T14:00:00Z,28.8425,-94.2433,-2.0,17.55,11111222 
TABS,ioos:station:wmo:42050:1,2007-03-13T14:30:00Z,28.8425,-94.2433,-2.0,17.57,11111222 
TABS,ioos:station:wmo:42050:1,2007-03-13T15:00:00Z,28.8425,-94.2433,-2.0,17.57,11111222 
TABS,ioos:station:wmo:42050:1,2007-03-13T15:30:00Z,28.8425,-94.2433,-2.0,17.58,11111222 
TABS,ioos:station:wmo:42050:1,2007-03-13T16:00:00Z,28.8425,-94.2433,-2.0,17.61,11111222 
TABS,ioos:station:wmo:42050:1,2007-03-13T16:30:00Z,28.8425,-94.2433,-2.0,17.63,11111222 
TABS,ioos:station:wmo:42050:1,2007-03-13T17:00:00Z,28.8425,-94.2433,-2.0,17.67,11111222 
TABS,ioos:station:wmo:42050:1,2007-03-13T17:30:00Z,28.8425,-94.2433,-2.0,17.68,11111222 
TABS,ioos:station:wmo:42050:1,2007-03-13T18:00:00Z,28.8425,-94.2433,-2.0,17.62,11111222 
TABS,ioos:station:wmo:42050:1,2007-03-13T18:30:00Z,28.8425,-94.2433,-2.0,17.6,11111222 
TABS,ioos:station:wmo:42050:1,2007-03-13T19:00:00Z,28.8425,-94.2433,-2.0,17.53,11111222 
TABS,ioos:station:wmo:42050:1,2007-03-13T19:30:00Z,28.8425,-94.2433,-2.0,17.5,11111222 
TABS,ioos:station:wmo:42050:1,2007-03-13T20:00:00Z,28.8425,-94.2433,-2.0,17.49,11111222 
TABS,ioos:station:wmo:42050:1,2007-03-13T20:30:00Z,28.8425,-94.2433,-2.0,17.52,11111222 
TABS,ioos:station:wmo:42050:1,2007-03-13T21:00:00Z,28.8425,-94.2433,-2.0,17.55,11111222 
TABS,ioos:station:wmo:42050:1,2007-03-13T21:30:00Z,28.8425,-94.2433,-2.0,17.58,11111222 
TABS,ioos:station:wmo:42050:1,2007-03-13T22:00:00Z,28.8425,-94.2433,-2.0,17.63,11111222 
TABS,ioos:station:wmo:42050:1,2007-03-13T22:30:00Z,28.8425,-94.2433,-2.0,17.73,11111222 
TABS,ioos:station:wmo:42050:1,2007-03-13T23:00:00Z,28.8425,-94.2433,-2.0,17.79,11111222 
TABS,ioos:station:wmo:42050:1,2007-03-13T23:30:00Z,28.8425,-94.2433,-2.0,17.84,11111222 
TABS,ioos:station:wmo:42050:1,2007-03-14T00:00:00Z,28.8425,-94.2433,-2.0,17.85,11111222 
TABS,ioos:station:wmo:42050:1,2007-03-14T00:30:00Z,28.8425,-94.2433,-2.0,17.77,11111222 
TABS,ioos:station:wmo:42050:1,2007-03-14T01:00:00Z,28.8425,-94.2433,-2.0,17.88,11111222 
TABS,ioos:station:wmo:42050:1,2007-03-14T01:30:00Z,28.8425,-94.2433,-2.0,17.77,11111222 
TABS,ioos:station:wmo:42050:1,2007-03-14T02:00:00Z,28.8425,-94.2433,-2.0,17.55,11111222 
TABS,ioos:station:wmo:42050:1,2007-03-14T02:30:00Z,28.8425,-94.2433,-2.0,17.53,11111222 
TABS,ioos:station:wmo:42050:1,2007-03-14T03:00:00Z,28.8425,-94.2433,-2.0,17.43,11111222 
TABS,ioos:station:wmo:42050:1,2007-03-14T03:30:00Z,28.8425,-94.2433,-2.0,17.33,11111222 
TABS,ioos:station:wmo:42050:1,2007-03-14T04:00:00Z,28.8425,-94.2433,-2.0,17.51,11111222 
TABS,ioos:station:wmo:42050:1,2007-03-14T04:30:00Z,28.8425,-94.2433,-2.0,17.51,11111222 
TABS,ioos:station:wmo:42050:1,2007-03-14T05:00:00Z,28.8425,-94.2433,-2.0,17.51,11111222 
TABS,ioos:station:wmo:42050:1,2007-03-14T05:30:00Z,28.8425,-94.2433,-2.0,17.45,11111222 
TABS,ioos:station:wmo:42050:1,2007-03-14T06:00:00Z,28.8425,-94.2433,-2.0,17.41,11111222 
TABS,ioos:station:wmo:42050:1,2007-03-14T06:30:00Z,28.8425,-94.2433,-2.0,17.2,11111222 
TABS,ioos:station:wmo:42050:1,2007-03-14T07:00:00Z,28.8425,-94.2433,-2.0,17.08,11111222 
TABS,ioos:station:wmo:42050:1,2007-03-14T07:30:00Z,28.8425,-94.2433,-2.0,16.98,11111222 
TABS,ioos:station:wmo:42050:1,2007-03-14T08:00:00Z,28.8425,-94.2433,-2.0,17.07,11111222 
TABS,ioos:station:wmo:42050:1,2007-03-14T08:30:00Z,28.8425,-94.2433,-2.0,17.15,11111222 
TABS,ioos:station:wmo:42050:1,2007-03-14T09:00:00Z,28.8425,-94.2433,-2.0,17.06,11111222 
TABS,ioos:station:wmo:42050:1,2007-03-14T09:30:00Z,28.8425,-94.2433,-2.0,16.96,11111222 
TABS,ioos:station:wmo:42050:1,2007-03-14T10:00:00Z,28.8425,-94.2433,-2.0,16.98,11111222 
TABS,ioos:station:wmo:42050:1,2007-03-14T10:30:00Z,28.8425,-94.2433,-2.0,16.96,11111222 
TABS,ioos:station:wmo:42050:1,2007-03-14T11:00:00Z,28.8425,-94.2433,-2.0,17.0,11111222 
TABS,ioos:station:wmo:42050:1,2007-03-14T11:30:00Z,28.8425,-94.2433,-2.0,17.0,11111222 
TABS,ioos:station:wmo:42050:1,2007-03-14T12:00:00Z,28.8425,-94.2433,-2.0,17.0,11111222 
TABS,ioos:station:wmo:42050:1,2007-03-14T12:30:00Z,28.8425,-94.2433,-2.0,17.02,11111222 
TABS,ioos:station:wmo:42050:1,2007-03-14T13:00:00Z,28.8425,-94.2433,-2.0,17.07,11111222 
TABS,ioos:station:wmo:42050:1,2007-03-14T13:30:00Z,28.8425,-94.2433,-2.0,17.1,11111222 
TABS,ioos:station:wmo:42050:1,2007-03-14T14:00:00Z,28.8425,-94.2433,-2.0,17.14,11111222 
TABS,ioos:station:wmo:42050:1,2007-03-14T14:30:00Z,28.8425,-94.2433,-2.0,17.21,11111222 
TABS,ioos:station:wmo:42050:1,2007-03-14T15:00:00Z,28.8425,-94.2433,-2.0,17.23,11111222 
TABS,ioos:station:wmo:42050:1,2007-03-14T15:30:00Z,28.8425,-94.2433,-2.0,17.22,11111222 
TABS,ioos:station:wmo:42050:1,2007-03-14T16:00:00Z,28.8425,-94.2433,-2.0,17.21,11111222 
TABS,ioos:station:wmo:42050:1,2007-03-14T16:30:00Z,28.8425,-94.2433,-2.0,17.18,11111222 
TABS,ioos:station:wmo:42050:1,2007-03-14T17:00:00Z,28.8425,-94.2433,-2.0,17.26,11111222 
TABS,ioos:station:wmo:42050:1,2007-03-14T17:30:00Z,28.8425,-94.2433,-2.0,17.32,11111222 
TABS,ioos:station:wmo:42050:1,2007-03-14T18:00:00Z,28.8425,-94.2433,-2.0,17.35,11111222 
TABS,ioos:station:wmo:42050:1,2007-03-14T18:30:00Z,28.8425,-94.2433,-2.0,17.33,11111222 
TABS,ioos:station:wmo:42050:1,2007-03-14T19:00:00Z,28.8425,-94.2433,-2.0,17.31,11111222 
TABS,ioos:station:wmo:42050:1,2007-03-14T19:30:00Z,28.8425,-94.2433,-2.0,17.29,11111222 
TABS,ioos:station:wmo:42050:1,2007-03-14T20:00:00Z,28.8425,-94.2433,-2.0,17.29,11111222 
TABS,ioos:station:wmo:42050:1,2007-03-14T20:30:00Z,28.8425,-94.2433,-2.0,17.32,11111222 
TABS,ioos:station:wmo:42050:1,2007-03-14T21:00:00Z,28.8425,-94.2433,-2.0,17.41,11111222 
TABS,ioos:station:wmo:42050:1,2007-03-14T21:30:00Z,28.8425,-94.2433,-2.0,17.47,11111222 
TABS,ioos:station:wmo:42050:1,2007-03-14T22:00:00Z,28.8425,-94.2433,-2.0,17.52,11111222 
TABS,ioos:station:wmo:42050:1,2007-03-14T22:30:00Z,28.8425,-94.2433,-2.0,17.57,11111222 
TABS,ioos:station:wmo:42050:1,2007-03-14T23:00:00Z,28.8425,-94.2433,-2.0,17.6,11111222 
TABS,ioos:station:wmo:42050:1,2007-03-14T23:30:00Z,28.8425,-94.2433,-2.0,17.61,11111222 
TABS,ioos:station:wmo:42050:1,2007-03-18T18:30:00Z,28.8425,-94.2433,-2.0,22.5,11111222 
TABS,ioos:station:wmo:42050:1,2007-03-18T19:30:00Z,28.8425,-94.2433,-2.0,18.0,11111222 
TABS,ioos:station:wmo:42050:1,2007-03-18T20:00:00Z,28.8425,-94.2433,-2.0,18.0,11111222 
TABS,ioos:station:wmo:42050:1,2007-03-18T20:30:00Z,28.8425,-94.2433,-2.0,18.2,11111222 
TABS,ioos:station:wmo:42050:1,2007-03-18T21:00:00Z,28.8425,-94.2433,-2.0,18.2,11111222 
TABS,ioos:station:wmo:42050:1,2007-03-18T21:30:00Z,28.8425,-94.2433,-2.0,18.2,11111222 
TABS,ioos:station:wmo:42050:1,2007-03-18T22:00:00Z,28.8425,-94.2433,-2.0,18.2,11111222 
TABS,ioos:station:wmo:42050:1,2007-03-18T22:30:00Z,28.8425,-94.2433,-2.0,18.2,11111222 
TABS,ioos:station:wmo:42050:1,2007-03-18T23:00:00Z,28.8425,-94.2433,-2.0,18.2,11111222 
TABS,ioos:station:wmo:42050:1,2007-03-18T23:30:00Z,28.8425,-94.2433,-2.0,18.2,11111222 
TABS,ioos:station:wmo:42050:1,2007-03-19T00:00:00Z,28.8425,-94.2433,-2.0,18.2,11111222 
TABS,ioos:station:wmo:42050:1,2007-03-19T00:30:00Z,28.8425,-94.2433,-2.0,18.2,11111222 
TABS,ioos:station:wmo:42050:1,2007-03-19T01:00:00Z,28.8425,-94.2433,-2.0,18.2,11111222 
TABS,ioos:station:wmo:42050:1,2007-03-19T01:30:00Z,28.8425,-94.2433,-2.0,18.2,11111222 
TABS,ioos:station:wmo:42050:1,2007-03-19T02:00:00Z,28.8425,-94.2433,-2.0,18.2,11111222 
TABS,ioos:station:wmo:42050:1,2007-03-19T02:30:00Z,28.8425,-94.2433,-2.0,18.2,11111222 
TABS,ioos:station:wmo:42050:1,2007-03-19T03:00:00Z,28.8425,-94.2433,-2.0,18.0,11111222 
TABS,ioos:station:wmo:42050:1,2007-03-19T03:30:00Z,28.8425,-94.2433,-2.0,18.0,11111222 
TABS,ioos:station:wmo:42050:1,2007-03-19T04:00:00Z,28.8425,-94.2433,-2.0,18.0,11111222 
TABS,ioos:station:wmo:42050:1,2007-03-19T04:30:00Z,28.8425,-94.2433,-2.0,18.0,11111222 
TABS,ioos:station:wmo:42050:1,2007-03-19T05:00:00Z,28.8425,-94.2433,-2.0,18.0,11111222 
TABS,ioos:station:wmo:42050:1,2007-03-19T05:30:00Z,28.8425,-94.2433,-2.0,18.0,11111222 
TABS,ioos:station:wmo:42050:1,2007-03-19T06:00:00Z,28.8425,-94.2433,-2.0,18.0,11111222 
TABS,ioos:station:wmo:42050:1,2007-03-19T06:30:00Z,28.8425,-94.2433,-2.0,18.0,11111222 
TABS,ioos:station:wmo:42050:1,2007-03-19T07:00:00Z,28.8425,-94.2433,-2.0,18.0,11111222 
TABS,ioos:station:wmo:42050:1,2007-03-19T07:30:00Z,28.8425,-94.2433,-2.0,18.0,11111222 
TABS,ioos:station:wmo:42050:1,2007-03-19T08:00:00Z,28.8425,-94.2433,-2.0,18.0,11111222 
TABS,ioos:station:wmo:42050:1,2007-03-19T08:30:00Z,28.8425,-94.2433,-2.0,18.0,11111222 
TABS,ioos:station:wmo:42050:1,2007-03-19T09:00:00Z,28.8425,-94.2433,-2.0,18.0,11111222 
TABS,ioos:station:wmo:42050:1,2007-03-19T09:30:00Z,28.8425,-94.2433,-2.0,18.0,11111222 
TABS,ioos:station:wmo:42050:1,2007-03-19T10:00:00Z,28.8425,-94.2433,-2.0,18.0,11111222 
TABS,ioos:station:wmo:42050:1,2007-03-19T10:30:00Z,28.8425,-94.2433,-2.0,18.0,11111222 
TABS,ioos:station:wmo:42050:1,2007-03-19T11:00:00Z,28.8425,-94.2433,-2.0,18.0,11111222 
TABS,ioos:station:wmo:42050:1,2007-03-19T11:30:00Z,28.8425,-94.2433,-2.0,18.0,11111222 